{"data":{"norad_id":43251,"epoch":"2026-05-24T22:52:43.409280Z","epoch_age_seconds":72337,"freshness":"FRESH","line1":"1 43251U 18030C   26144.95328020  .00000035  00000+0  54360-5 0  9993","line2":"2 43251  86.3939 300.1386 0002166  91.9353 268.2091 14.34217731426802","mean_motion":14.34217731,"eccentricity":0.0002166,"inclination_deg":86.3939,"raan_deg":300.1386,"arg_perigee_deg":91.9353,"mean_anomaly_deg":268.2091,"bstar":5.436e-6,"rev_number":42680,"period_min":100.40316535454,"perigee_km":776.11727035831,"apogee_km":779.21716474535,"semimajor_km":7155.8042175518,"source":"CELESTRAK","updated_at":"2026-05-25T13:38:14.807533Z"}}